YO8RXT-3 Weather Reports


time (UTC)temp
F
wind
direction
speed
knots
gust
knots
rain 1hr
in
rain 24hr
in
rain mn
in
humidity
%
barometer
mb
20260906160502 70 310 13.9 0.0 0.00 0.00 0.00 38 1021.0
20260906153502 70 320 17.4 0.0 0.00 0.00 0.00 35 1020.0
20260906150502 70 320 15.6 0.0 0.00 0.00 0.00 35 1020.0
20260906143502 70 320 18.2 0.0 0.00 0.00 0.00 38 1020.0
20260906140502 70 300 17.4 0.0 0.00 0.00 0.00 38 1019.0
20260906133502 72 320 18.2 0.0 0.00 0.00 0.00 31 1019.0
20260906130502 70 310 12.2 0.0 0.00 0.00 0.00 40 1019.0
20260906123504 70 5.2 0.0 0.00 0.00 0.00 46 1019.0
20260906120502 64 250 4.3 0.0 0.00 0.00 0.00 60 1020.0
20260906113502 63 280 6.1 0.0 0.00 0.00 0.00 64 1020.0
20260906110502 66 310 18.2 0.0 0.00 0.00 0.00 49 1020.0
20260906103502 68 310 14.8 26.1 0.00 0.00 0.00 49 1019.0
20260906100502 68 290 8.7 0.0 0.00 0.00 0.00 56 1019.0
20260906093502 66 320 15.6 0.0 0.00 0.00 0.00 52 1019.0
20260906090502 68 330 15.6 0.0 0.00 0.00 0.00 49 1019.0
20260906083502 68 330 9.6 0.0 0.00 0.00 0.00 56 1019.0
20260906080502 66 300 7.8 0.0 0.00 0.00 0.00 60 1019.0
20260906073502 63 220 5.2 0.0 0.00 0.00 0.00 77 1019.0
20260906070502 61 260 6.1 0.0 0.00 0.00 0.00 77 1020.0
20260906063503 61 230 6.1 0.0 0.00 0.00 0.00 77 1019.0
20260906060502 63 340 7.8 0.0 0.00 0.00 0.00 68
20260906053503 61 290 7.8 0.0 0.00 0.00 0.00 77 1019.0
20260906050502 61 310 9.6 0.0 0.00 0.00 0.00 83 1019.0
20260906043502 61 250 2.6 0.0 0.00 0.00 0.00 83 1018.0
20260906040502 59 240 4.3 0.0 0.00 0.00 0.00 88 1018.0
20260906033502 59 230 5.2 0.0 0.00 0.00 0.00 88 1017.0
20260906030502 59 230 4.3 0.0 0.00 0.00 0.00 88 1017.0
20260906023503 59 230 2.6 0.0 0.00 0.00 0.00 88 1017.0
20260906020503 61 220 1.7 0.0 0.00 0.00 0.00 83 1017.0
20260906013502 61 240 2.6 0.0 0.00 0.00 0.00 88 1017.0
20260906010501 61 190 4.3 0.0 0.00 0.00 0.00 88 1017.0
20260906003501 61 230 4.3 0.0 0.00 0.00 0.00 88 1017.0
20260906000502 61 220 4.3 0.0 0.00 0.00 0.00 88 1017.0
20260905233502 61 250 4.3 0.0 0.00 0.00 0.00 88 1017.0
20260905230503 63 240 4.3 0.0 0.00 0.00 0.00 83 1018.0
20260905223502 63 240 5.2 0.0 0.00 0.00 0.00 83 1018.0
20260905220501 61 240 5.2 0.0 0.00 0.00 0.00 88
20260905213502 61 260 5.2 0.0 0.00 0.00 0.00 88 1017.0
20260905210502 61 260 6.1 0.0 0.00 0.00 0.00 88 1017.0
20260905203503 61 270 5.2 0.0 0.00 0.00 0.00 88 1017.0
20260905200502 61 280 5.2 0.0 0.00 0.00 0.00 94 1016.0
20260905193502 63 250 4.3 0.0 0.00 0.00 0.00 88 1017.0
20260905190502 63 240 4.3 0.0 0.00 0.00 0.00 88 1017.0
20260905183503 63 270 5.2 0.0 0.00 0.00 0.00 88 1017.0
20260905180503 63 320 6.1 0.0 0.00 0.00 0.00 88 1016.0
20260905173502 63 320 5.2 0.0 0.00 0.00 0.00 88 1016.0
20260905170502 72 320 7.8 0.0 0.00 0.00 0.00 50 1016.0
20260905163502 72 360 4.3 0.0 0.00 0.00 0.00 47 1015.0